Location: Caltech
(34.1382°N, 118.1253°W)
Time: 22:18:41
(UTC-07:00)

CZ-2C R/B - Visible Passes

Search period start: 26 September 2016 00:00
Search period end: 06 October 2016 00:00
Orbit: 668 x 786 km, 98.1° (Epoch: 26 September)

Date Brightness Start Highest point End Pass type
(mag) Time Alt. Az. Time Alt. Az. Time Alt. Az.
26 Sep 5.3 19:35:58 10° SW 19:39:41 21° W 19:43:21 10° NW visible
27 Sep 5.9 06:05:46 10° ENE 06:07:34 12° E 06:09:23 10° ESE visible
28 Sep 5.4 19:38:38 10° SW 19:42:10 19° W 19:45:39 10° NW visible
29 Sep 5.8 06:07:53 10° ENE 06:10:03 13° E 06:12:12 10° ESE visible
30 Sep 5.4 19:41:20 10° SW 19:44:39 18° W 19:47:55 10° NW visible
01 Oct 5.7 06:10:03 10° ENE 06:12:30 14° E 06:14:58 10° SE visible
02 Oct 5.5 19:44:03 10° SW 19:47:08 17° W 19:50:10 10° NW visible
03 Oct 5.6 06:12:16 10° ENE 06:14:58 15° E 06:17:41 10° SE visible
03 Oct 3.3 18:54:16 10° S 18:59:03 54° W 19:03:43 10° NNW visible
04 Oct 5.5 19:46:47 10° SW 19:49:36 15° W 19:52:23 10° WNW visible
05 Oct 5.6 06:14:30 10° NE 06:17:26 17° E 06:20:23 10° SE visible
05 Oct 3.4 18:56:47 10° S 19:01:31 50° W 19:06:06 10° NNW visible
